Location: Unspecified
(0.0000°N, 0.0000°E)
Time: 05:38:44
(UTC+02:00)

ARIANE 5 R/B - Visible Passes

Search period start: 26 September 2016 00:00
Search period end: 06 October 2016 00:00
Orbit: 567 x 35559 km, 5.4° (Epoch: 24 September)

Date Brightness Start Highest point End Pass type
(mag) Time Alt. Az. Time Alt. Az. Time Alt. Az.
26 Sep 3.1 06:45:58 24° WNW 06:47:58 45° N 06:51:16 10° ENE visible
26 Sep 8.6 18:03:35 10° W 19:47:34 47° W 03:17:13 19° W visible
27 Sep 7.8 14:50:16 10° W 18:34:55 84° S 00:25:13 82° WNW visible
28 Sep 6.2 11:47:56 10° W 19:56:46 68° E 21:33:12 29° E visible
29 Sep 12.0 21:05:58 10° W 21:49:45 13° W 22:49:09 10° W visible
30 Sep 3.9 05:50:50 35° NE 05:50:50 35° NE 05:52:56 10° ENE visible
30 Sep 8.3 16:59:54 10° W 18:48:15 60° WSW 02:22:52 34° W visible
01 Oct 7.5 13:51:19 10° W 19:20:25 86° S 23:30:51 74° ENE visible
02 Oct 5.7 10:50:05 10° W 18:56:06 54° E 20:38:50 13° E visible
03 Oct 11.8 19:29:08 10° W 20:52:44 25° W 23:47:17 10° W visible
04 Oct 7.9 15:58:20 10° W 17:48:52 74° WSW 01:28:29 52° W visible
05 Oct 7.0 12:52:49 10° W 20:28:45 88° SSW 22:36:27 53° E visible
